Regional Weather Roundup
Issued by NWS

Home | Current Version | Previous Version | Graphics & Text | Print | Product List | Glossary On
Versions: 1 2 3 4 5 6 7 8 9 10 11 12 13 14 15 16 17 18 19 20 21 22 23 24 25 26 27 28 29 30 31 32 33 34 35 36 37 38 39 40 41 42 43 44 45 46 47 48 49 50
000
ASUS45 KABQ 221901
RWRNM
NEW MEXICO REGIONAL WEATHER ROUNDUP
NATIONAL WEATHER SERVICE ALBUQUERQUE NM
100 PM MDT THU JUN 22 2017

NOTE: "FAIR" MEANS FEW OR NO CLOUDS BELOW 12,000 FEET AGL WITH NO
       SIGNIFICANT WEATHER OR OBSTRUCTIONS TO VISION.

      THIS PRODUCT IS RELEASED AS TWO VERSIONS.  ONE VERSION NEAR
      THE TOP OF THE HOUR CONTAINING PRELIMINARY DATA FROM ALBUQUERQUE
      AND OTHER STATIONS.  A FINAL VERSION WITH ADDITIONAL DATA IS
      ISSUED ABOUT 10 MINUTES AFTER THE HOUR.

NMZ501-503-504-510>518-222000-
NORTHWEST PLATEAU/NORTHCENTRAL MOUNTAINS

CITY           SKY/WX    TMP DP  RH WIND       PRES   REMARKS
FARMINGTON     FAIR      95  30  10 W14       29.99F
LOS ALAMOS     PTSUNNY   80  45  29 S12G17    30.16S
SANTA FE       FAIR      96  42  15 N16G24    30.06S
TAOS           PTSUNNY   86  34  15 NW7         N/A
ANGEL FIRE     FAIR      79  36  21 NW22G33   30.25S

$$
NMZ402-403-502-505>509-222000-
WESTCENTRAL MOUNTAINS/SOUTHWEST MOUNTAINS

CITY           SKY/WX    TMP DP  RH WIND       PRES   REMARKS
GALLUP         FAIR      96  28   9 W13G25    30.10F
GRANTS         FAIR      92  25   9 N13G21    30.11F
SILVER CITY    FAIR      97  40  14 W21       30.01F

$$
NMZ407-409-411-412-222000-
SOUTHERN DESERTS

CITY           SKY/WX    TMP DP  RH WIND       PRES   REMARKS
DEMING         FAIR     101  37  11 VRB5      29.90F HX  95
LAS CRUCES     FAIR     100  40  12 SW3       29.92F HX  95
HOLLOMAN AFB   FAIR      97  43  15 CALM      29.89F
ALAMOGORDO     FAIR      97  45  16 NE5       29.89F
T OR C         FAIR     101  36  10 VRB3      29.92F HX  95

$$
NMZ519>523-222000-
CENTRAL VALLEYS/CENTRAL HIGHLANDS

CITY           SKY/WX    TMP DP  RH WIND       PRES   REMARKS
ALBUQUERQUE    FAIR      94  37  13 NE3       30.00F
DOUBLE EAGLE   MOSUNNY   97  41  14 W10       30.04F
MORIARTY ARPT  FAIR      97  37  12 W8G16     30.04F
CLINES CORNERS FAIR      91  35  13 NW20      30.11F
BELEN          FAIR      96  36  12 NW3       29.97F
SOCORRO        FAIR      98  37  12 E7        29.93F

$$
NMZ524>526-539-540-222000-
SOUTHCENTRAL MOUNTAINS

CITY           SKY/WX    TMP DP  RH WIND       PRES   REMARKS
RUIDOSO        FAIR      90  34  13 N10G20    30.12F

$$
NMZ527>531-222000-
NORTHEAST HIGHLANDS/NORTHEAST PLAINS

CITY           SKY/WX    TMP DP  RH WIND       PRES   REMARKS
LAS VEGAS      FAIR      95  28   9 VRB5G21   30.06F
RATON          FAIR      96  29   9 N12       29.98F
CLAYTON        FAIR      97  34  11 N12       29.87F

$$
NMZ532>537-222000-
EASTCENTRAL PLAINS

CITY           SKY/WX    TMP DP  RH WIND       PRES   REMARKS
TUCUMCARI      FAIR     101  52  19 SW9       29.79F HX  98
CANNON AFB     FAIR      96  49  20 SW8       29.86F
CLOVIS AIRPORT NOT AVBL

$$
NMZ028-029-538-222000-
SOUTHEAST PLAINS

CITY           SKY/WX    TMP DP  RH WIND       PRES   REMARKS
ROSWELL        FAIR     100  52  19 SE9       29.80F HX  97
ARTESIA        FAIR      99  55  23 SE7G13    29.80F HX  97
CARLSBAD       FAIR      98  55  23 SE9       29.78F HX  96
HOBBS          SUNNY     93  50  22 E6        29.85F


$$




USA.gov is the U.S. government's official web portal to all federal, state and local government web resources and services.